Lubbock, TX

6:49 AM CST on November 20, 2019 (GMT -0600)
Lubbock International

Weather History for KLBB - August, 2019

Change the Weather History Date:

Friday, August 16, 2019

  Actual Average Record
Temperature  
Mean Temperature 86 °F 79 °F  
Max Temperature 103 °F 92 °F 104 °F (1943)
Min Temperature 69 °F 67 °F 55 °F (1931)
Degree Days  
Heating Degree Days 0 0  
Month to date heating degree days 0 0  
Since 1 June heating degree days 0 2  
Since 1 July heating degree days 0 0  
Cooling Degree Days 21 14  
Month to date cooling degree days 332 237  
Year to date cooling degree days 1439 1330  
Since 1 June cooling degree days 1229 1084  
Growing Degree Days 36 (Base 50)    
Moisture  
Dew Point 54 °F    
Average Humidity 41    
Maximum Humidity 66    
Minimum Humidity 16    
Precipitation  
Precipitation 0.00 in 0.06 in 2.45 in (2008)
Month to date precipitation 0.13 0.97  
Year to date precipitation 13.58 12.13  
Snow  
Snow 0.00 in 0.00 in 0.00 in (2002)
Month to date snowfall 0.0 0.0  
Since 1 June snowfall 0.0 0.0  
Since 1 July snowfall 0.0 0.0  
Snow Depth 0.00 in    
Sea Level Pressure  
Sea Level Pressure 29.80 in    
Wind  
Wind Speed 13 mph (South)    
Max Wind Speed 25 mph    
Max Gust Speed 32 mph    
Visibility 10 miles    
Events      
T = Trace of Precipitation, MM = Missing Value Source: NWS Daily Summary

Daily Weather History Graph

Daily Weather History Graph

Search for Another Location

Airport or City:

Astronomy

Aug. 16, 2019 Rise Set
Actual Time 7:09 AM CDT 8:32 PM CDT
Civil Twilight 6:43 AM CDT 8:58 PM CDT
Nautical Twilight 6:12 AM CDT 9:30 PM CDT
Astronomical Twilight 5:39 AM CDT 10:02 PM CDT
Moon 9:35 PM CDT (8/16) 8:03 AM CDT (8/16)
Length of Visible Light 14h 15m
Length of Day
13h 22m
Full, 99% of the Moon is Illuminated
Aug 16
Full
Aug 23
Last Quarter
Aug 30
New
Sep 5
First Quarter
Sep 13
Full

Hourly Weather History & Observations

Time (CDT) Temp. Heat Index Dew Point Humidity Pressure Visibility Wind Dir Wind Speed Gust Speed Precip Events Conditions
12:53 AM 79.0 °F - 55.9 °F 45% 29.87 in 10.0 mi ESE 9.2 mph - N/A   Mostly Cloudy
1:53 AM 77.0 °F - 55.9 °F 48% 29.85 in 10.0 mi SE 9.2 mph - N/A   Mostly Cloudy
2:53 AM 73.9 °F - 57.0 °F 55% 29.85 in 10.0 mi ESE 3.5 mph - N/A   Mostly Cloudy
3:53 AM 75.9 °F - 57.9 °F 54% 29.82 in 10.0 mi South 6.9 mph - N/A   Mostly Cloudy
4:53 AM 72.0 °F - 59.0 °F 64% 29.83 in 10.0 mi West 8.1 mph - N/A   Mostly Cloudy
5:53 AM 72.0 °F - 57.9 °F 61% 29.85 in 10.0 mi ESE 8.1 mph - N/A   Mostly Cloudy
6:53 AM 70.0 °F - 57.9 °F 65% 29.86 in 10.0 mi SSE 5.8 mph - N/A   Scattered Clouds
7:53 AM 72.0 °F - 57.9 °F 61% 29.87 in 10.0 mi SSE 4.6 mph - N/A   Partly Cloudy
8:53 AM 80.1 °F 80.7 °F 59.0 °F 48% 29.87 in 10.0 mi SSW 9.2 mph - N/A   Partly Cloudy
9:53 AM 84.9 °F 84.8 °F 60.1 °F 43% 29.86 in 10.0 mi SW 11.5 mph - N/A   Partly Cloudy
10:53 AM 90.0 °F 89.7 °F 60.1 °F 37% 29.86 in 10.0 mi SSW 15.0 mph - N/A   Partly Cloudy
11:53 AM 93.9 °F 93.2 °F 59.0 °F 31% 29.85 in 10.0 mi SW 18.4 mph 24.2 mph N/A   Partly Cloudy
12:53 PM 97.0 °F 95.3 °F 55.9 °F 25% 29.83 in 10.0 mi SW 13.8 mph - N/A   Partly Cloudy
1:53 PM 99.0 °F 96.9 °F 54.0 °F 22% 29.80 in 10.0 mi WSW 13.8 mph - N/A   Partly Cloudy
2:53 PM 100.9 °F 98.7 °F 53.1 °F 20% 29.77 in 10.0 mi SW 18.4 mph 27.6 mph N/A   Partly Cloudy
3:53 PM 102.0 °F - 52.0 °F 19% 29.74 in 10.0 mi SSW 15.0 mph 23.0 mph N/A   Partly Cloudy
4:53 PM 102.0 °F - 48.0 °F 16% 29.72 in 10.0 mi SW 15.0 mph 19.6 mph N/A   Scattered Clouds
5:53 PM 100.0 °F - 50.0 °F 18% 29.71 in 10.0 mi SW 23.0 mph 27.6 mph N/A   Scattered Clouds
6:53 PM 96.1 °F - 46.0 °F 18% 29.71 in 10.0 mi SSW 20.7 mph 28.8 mph N/A   Scattered Clouds
7:53 PM 93.0 °F - 45.0 °F 19% 29.72 in 10.0 mi South 16.1 mph - N/A   Scattered Clouds
8:53 PM 87.1 °F - 48.9 °F 27% 29.71 in 10.0 mi South 17.3 mph - N/A   Scattered Clouds
9:53 PM 84.9 °F - 48.9 °F 29% 29.72 in 10.0 mi South 15.0 mph - N/A   Scattered Clouds
10:53 PM 82.0 °F - 50.0 °F 33% 29.75 in 10.0 mi SSE 15.0 mph - N/A   Scattered Clouds
11:53 PM 80.1 °F - 51.1 °F 36% 29.76 in 10.0 mi SSE 10.4 mph - N/A   Scattered Clouds